[[{"header":{"parameterUnit":"m.s-1","parameterCategory":1,"la1":30.2991,"la2":30.254,"lo1":-89.0895,"lo2":-89.0444,"dy":0.0017,"dx":0.0017,"nx":28,"ny":28,"refTime":"2025-06-05T03:00:00:Z","depth":0,"parameterNumber":2,"parameterNumberName":"U-component_of_WINDS"},"data":[0,0,0,0,0,0,0,0,0,0,0,0,0,0,0,0,0,0,0,0,0,0,0,0,0,0,0,0,0,0,0,0,0,0,0,0,0,0,0,0,0,0,0,0,0,0,0,0,0,0,0,0,0,0,0,0,0,0,2.1614,2.1615,0,2.1692,2.1693,2.1694,2.1707,2.1706,2.1705,2.1705,2.1783,2.1786,2.1788,0,0,0,0,0,0,0,0,0,0,0,0,0,2.1475,2.1477,2.1614,2.1615,2.1616,2.1692,2.1693,2.1694,2.1707,2.1706,2.1705,2.1704,2.1782,2.1785,2.1789,0,0,0,0,0,0,0,0,0,0,0,0,0,2.1542,2.1478,2.1614,2.1632,2.1634,2.1692,2.1693,2.1695,2.1707,2.1706,2.1705,2.1704,2.1781,2.1785,2.1789,2.1834,0,0,2.1801,2.1803,0,0,0,0,0,0,0,0,2.1539,2.1547,2.1628,2.1631,2.1633,2.1689,2.1673,2.1741,2.1707,2.1679,2.1705,2.1704,2.1752,2.1759,2.1776,2.1838,2.1841,2.1802,2.1804,2.1806,2.1807,0,0,0,0,0,0,0,2.1534,2.1544,2.1645,2.1629,2.1633,2.1635,2.1644,2.1686,2.172,2.1682,2.1683,2.1692,2.1754,2.1772,2.1777,2.1843,2.1802,2.1805,2.1808,2.1809,2.1947,2.1948,0,0,0,0,0,0,2.1526,2.154,2.1643,2.1648,2.1583,2.1639,2.1648,2.1672,2.172,2.1726,2.1693,2.1692,2.1765,2.1773,2.178,2.1837,2.1806,2.181,2.1812,2.1945,2.1947,2.1948,0,0,0,0,0,0,2.1523,2.1535,2.164,2.1594,2.1608,2.1642,2.1669,2.1674,2.1692,2.1728,2.1735,2.1705,2.1765,2.1775,2.1821,2.184,2.1812,2.1815,2.1944,2.1946,2.1948,2.195,0,0,0,0,0,0,2.1519,2.1534,2.1552,2.1595,2.161,2.1679,2.167,2.1676,2.1699,2.1699,2.1741,2.1747,2.1765,2.1815,2.1825,2.1845,2.1818,2.1942,2.1945,2.1947,2.1949,2.1952,2.1955,0,0,0,0,0,2.1514,2.1549,2.1553,2.1565,2.1633,2.1681,2.1689,2.1709,2.1701,2.1719,2.1742,2.1746,2.1836,2.182,2.1831,2.1852,2.1941,2.1944,2.1947,2.1947,2.1951,2.1955,0,0,0,0,0,0,2.1507,2.1555,2.156,2.161,2.1641,2.1683,2.1706,2.1712,2.1746,2.1745,2.1767,2.1776,2.1822,2.1842,2.1823,2.1899,2.1888,2.1893,2.1884,2.1889,2.1892,2.1886,2.1822,0,0,0,0,0,2.1512,2.1547,2.1586,2.1627,2.1642,2.1671,2.1693,2.1705,2.1738,2.1751,2.1778,2.181,2.1845,2.1868,2.1902,2.1952,2.1961,2.1972,2.1975,2.1977,2.1981,2.2009,2.2015,2.1957,2.1957,2.1957,0,0,2.1521,2.1551,2.1572,2.1626,2.1652,2.1687,2.1682,2.172,2.1746,2.1757,2.1803,2.1823,2.186,2.1908,2.1931,2.1926,2.1999,2.1981,2.1982,2.1985,2.2012,2.2018,2.2023,2.1959,2.1959,2.1958,0,0,2.1556,2.1583,2.1619,2.1645,2.1685,2.1704,2.1713,2.1753,2.1768,2.1814,2.1823,2.1854,2.1915,2.1941,2.1962,2.2007,2.2012,2.2018,2.2034,2.206,2.2065,2.2069,2.2085,2.2091,2.2022,2.2022,2.2022,0,2.1562,2.1616,2.1637,2.1675,2.1698,2.171,2.1747,2.1771,2.1819,2.1835,2.1829,2.1906,2.1932,2.1986,2.1997,2.2014,2.2024,2.2013,2.2063,2.2067,2.2071,2.2087,2.2093,2.2022,2.2022,2.2022,2.2022,0,2.1623,2.166,2.1685,2.1732,2.1758,2.1795,2.1821,2.1845,2.1855,2.1875,2.1922,2.1953,2.1994,2.2008,2.2018,2.2064,2.206,2.2058,2.2048,2.2077,2.2092,2.2098,2.2023,2.2023,2.2023,2.2023,0,0,2.1655,2.1714,2.1723,2.1744,2.1789,2.1818,2.1855,2.1896,2.1916,2.1949,2.1981,2.2032,2.2031,2.2055,2.2068,2.2091,2.2125,2.2087,2.2088,2.2093,2.2178,2.2179,2.2186,2.2129,2.213,2.2131,2.2175,0,2.1696,2.1764,2.1783,2.184,2.1875,2.1887,2.192,2.195,2.1969,2.2001,2.2023,2.2059,2.2054,2.2069,2.2093,2.2116,2.2143,2.2113,2.2158,2.216,2.2149,2.2193,2.2195,2.2235,2.2181,2.2182,2.2183,0,2.1752,2.1787,2.1847,2.1887,2.1903,2.1932,2.1971,2.2001,2.2036,2.2049,2.2075,2.2087,2.2126,2.2113,2.2167,2.2147,2.2167,2.2181,2.2183,2.2188,2.2173,2.2199,2.2248,2.2254,2.2192,2.2191,2.2191,0,2.177,2.1832,2.1876,2.1894,2.1942,2.1962,2.1983,2.2017,2.204,2.2074,2.209,2.2128,2.2148,2.2178,2.2198,2.2187,2.2251,2.224,2.2262,2.2262,2.2275,2.2274,2.2327,2.2288,2.2288,2.2288,2.2287,0,2.1813,2.1849,2.1885,2.1912,2.1953,2.1975,2.2016,2.2037,2.2067,2.2098,2.2111,2.214,2.2166,2.2198,2.2215,2.2257,2.2266,2.2277,2.2281,2.2276,2.2275,2.2289,2.2287,2.2289,2.2289,2.2288,2.2288,0,2.184,2.1865,2.1914,2.1956,2.1967,2.1996,2.2031,2.2058,2.2078,2.2117,2.2128,2.2159,2.2198,2.2222,2.2271,2.2282,2.2329,2.2332,2.2317,2.2319,2.234,2.2337,2.2404,2.2414,2.2368,2.2368,2.2369,0,2.1866,2.1894,2.1939,2.1961,2.1983,2.2018,2.2042,2.2065,2.209,2.2132,2.2153,2.2193,2.2226,2.2287,2.2314,2.2352,2.2356,2.2376,2.2361,2.2355,2.2356,2.2354,2.2357,2.2379,2.2379,2.2379,2.238,0,2.1909,2.192,2.1955,2.1994,2.2022,2.2054,2.2086,2.2103,2.2131,2.2158,2.2198,2.2224,2.2274,2.2313,2.2354,2.2375,2.2382,2.2384,2.2391,2.2386,2.2377,2.2382,2.2324,2.2383,2.2382,2.2382,2.2382,2.2382,2.1936,2.1962,2.1998,2.2036,2.2062,2.2092,2.2119,2.2143,2.2177,2.222,2.2231,2.2273,2.2307,2.2362,2.2384,2.2417,2.2414,2.2424,2.2427,2.2429,2.2429,2.2372,2.2424,2.2424,2.2424,2.2424,2.2424,0,2.198,2.2004,2.2039,2.2083,2.2113,2.2118,2.2153,2.2177,2.2214,2.2246,2.2278,2.2324,2.2362,2.2392,2.2432,2.2452,2.2456,2.2462,2.246,2.2465,2.243,2.242,2.2458,2.2458,2.2458,2.2457,2.2457,2.2457,2.2006,2.205,2.2066,2.2123,2.2146,2.2188,2.2208,2.2235,2.226,2.2311,2.2343,2.2363,2.2394,2.2435,2.247,2.2478,2.2492,2.2496,2.2505,2.2471,2.2467,2.2464,2.2454,2.2499,2.2499,2.2537,2.2538,2.2538]},{"header":{"parameterUnit":"m.s-1","parameterCategory":1,"la1":30.2991,"la2":30.254,"lo1":-89.0895,"lo2":-89.0444,"dy":0.0017,"dx":0.0017,"nx":28,"ny":28,"refTime":"2025-06-05T03:00:00:Z","depth":0,"parameterNumber":3,"parameterNumberName":"V-component_of_WINDS"},"data":[0,0,0,0,0,0,0,0,0,0,0,0,0,0,0,0,0,0,0,0,0,0,0,0,0,0,0,0,0,0,0,0,0,0,0,0,0,0,0,0,0,0,0,0,0,0,0,0,0,0,0,0,0,0,0,0,0,0,2.3234,2.3234,0,2.3256,2.3256,2.3256,2.3263,2.3263,2.3262,2.3262,2.3282,2.3283,2.3283,0,0,0,0,0,0,0,0,0,0,0,0,0,2.3195,2.3196,2.3234,2.3234,2.3234,2.3256,2.3256,2.3256,2.3263,2.3263,2.3262,2.3262,2.3282,2.3282,2.3283,0,0,0,0,0,0,0,0,0,0,0,0,0,2.3214,2.3196,2.3234,2.324,2.3241,2.3256,2.3256,2.3256,2.3263,2.3263,2.3262,2.3262,2.3282,2.3282,2.3283,2.3292,0,0,2.3286,2.3287,0,0,0,0,0,0,0,0,2.3213,2.3215,2.3239,2.324,2.3241,2.3256,2.3249,2.3268,2.3263,2.3254,2.3262,2.3262,2.3273,2.3275,2.3279,2.3293,2.3294,2.3286,2.3287,2.3287,2.3287,0,0,0,0,0,0,0,2.3212,2.3214,2.3242,2.3239,2.324,2.3241,2.3244,2.3253,2.3264,2.3255,2.3256,2.3258,2.3274,2.3278,2.328,2.3294,2.3286,2.3287,2.3288,2.3288,2.3316,2.3316,0,0,0,0,0,0,2.321,2.3213,2.3242,2.3243,2.3226,2.3242,2.3245,2.3251,2.3264,2.3266,2.3258,2.3259,2.3277,2.3279,2.328,2.3292,2.3287,2.3288,2.3289,2.3316,2.3316,2.3316,0,0,0,0,0,0,2.3209,2.3212,2.3241,2.3228,2.3232,2.3243,2.325,2.3252,2.3257,2.3267,2.3269,2.3261,2.3277,2.3279,2.3289,2.3292,2.3288,2.3289,2.3315,2.3316,2.3316,2.3314,0,0,0,0,0,0,2.3208,2.3212,2.3216,2.3228,2.3233,2.325,2.3251,2.3253,2.3259,2.3259,2.327,2.3272,2.3277,2.3288,2.329,2.3294,2.329,2.3315,2.3316,2.3316,2.3314,2.3314,2.3314,0,0,0,0,0,2.3206,2.3214,2.3216,2.3219,2.3238,2.325,2.3253,2.3259,2.3259,2.3263,2.3269,2.3271,2.3292,2.3289,2.3292,2.3295,2.3315,2.3315,2.3316,2.3314,2.3314,2.3314,0,0,0,0,0,0,2.32,2.3216,2.3218,2.323,2.3239,2.3251,2.3256,2.326,2.3268,2.3268,2.3275,2.3277,2.3287,2.3292,2.3289,2.3304,2.3303,2.3304,2.3301,2.3301,2.3302,2.33,2.3291,0,0,0,0,0,2.32,2.321,2.3222,2.3232,2.3236,2.3246,2.3251,2.3256,2.3264,2.3268,2.3275,2.3283,2.3291,2.3296,2.3305,2.3314,2.3317,2.3318,2.3319,2.3319,2.332,2.3325,2.3326,2.3317,2.3317,2.3317,0,0,2.3201,2.321,2.3216,2.3231,2.3238,2.3247,2.3249,2.3258,2.3264,2.3269,2.3279,2.3285,2.3294,2.3304,2.3309,2.3309,2.3322,2.3319,2.3319,2.332,2.3326,2.3326,2.3327,2.3318,2.3318,2.3318,0,0,2.3206,2.3214,2.3223,2.3231,2.3242,2.3248,2.325,2.3262,2.3266,2.3277,2.3281,2.3288,2.3302,2.3309,2.3314,2.3321,2.3323,2.3323,2.3325,2.333,2.3331,2.3332,2.3334,2.3335,2.3324,2.3324,2.3324,0,2.3204,2.3219,2.3227,2.3236,2.3243,2.3248,2.3257,2.3263,2.3276,2.328,2.328,2.3298,2.3304,2.3316,2.3318,2.3322,2.3324,2.3322,2.3331,2.3331,2.3332,2.3334,2.3335,2.3324,2.3324,2.3324,2.3324,0,2.3217,2.3226,2.3232,2.3246,2.3253,2.3261,2.327,2.3276,2.328,2.3285,2.3296,2.3304,2.3314,2.3317,2.332,2.3329,2.3329,2.3329,2.3328,2.3333,2.3335,2.3336,2.3324,2.3324,2.3324,2.3324,0,0,2.3218,2.3237,2.3239,2.3245,2.3258,2.3265,2.3274,2.3285,2.3289,2.3298,2.3305,2.3317,2.3318,2.3324,2.3328,2.3332,2.3338,2.3332,2.3333,2.3333,2.3348,2.3347,2.3348,2.3339,2.3339,2.334,2.3347,0,2.3225,2.3243,2.325,2.3263,2.3272,2.3278,2.3285,2.3293,2.3299,2.3307,2.3313,2.3321,2.3322,2.3325,2.333,2.3336,2.3341,2.3336,2.3345,2.3346,2.3343,2.335,2.3349,2.3355,2.3348,2.3348,2.3348,0,2.3236,2.3246,2.326,2.3272,2.3276,2.3283,2.3293,2.3301,2.331,2.3314,2.332,2.3324,2.3333,2.3332,2.3343,2.3339,2.3344,2.3347,2.3348,2.3349,2.3347,2.3351,2.3358,2.3359,2.335,2.335,2.335,0,2.3236,2.3252,2.3263,2.3269,2.3283,2.3288,2.3294,2.3303,2.3309,2.3317,2.3321,2.333,2.3335,2.3342,2.3348,2.3346,2.3358,2.3358,2.3361,2.3361,2.3364,2.3364,2.3371,2.3366,2.3366,2.3366,2.3366,0,2.3243,2.3251,2.3264,2.327,2.328,2.3288,2.3297,2.3303,2.3311,2.3319,2.3324,2.333,2.3338,2.3345,2.335,2.3358,2.336,2.3363,2.3364,2.3363,2.3363,2.3366,2.3366,2.3367,2.3367,2.3367,2.3367,0,2.3244,2.3253,2.3265,2.3278,2.3282,2.3288,2.3299,2.3305,2.3311,2.332,2.3323,2.3332,2.3341,2.3347,2.3359,2.3362,2.3371,2.3372,2.3368,2.3369,2.3372,2.3372,2.3383,2.3384,2.3378,2.3378,2.3378,0,2.3248,2.3255,2.3269,2.3275,2.3281,2.329,2.3297,2.3305,2.3311,2.3322,2.3327,2.3336,2.3344,2.3358,2.3365,2.3373,2.3375,2.3378,2.3376,2.3374,2.3375,2.3374,2.3375,2.3378,2.3378,2.3378,2.3378,0,2.3254,2.3258,2.3268,2.3279,2.3287,2.3295,2.3304,2.3308,2.3317,2.3324,2.3334,2.334,2.3352,2.3361,2.337,2.3375,2.3378,2.3379,2.338,2.3379,2.3376,2.3378,2.3369,2.3378,2.3378,2.3378,2.3378,2.3378,2.3257,2.3264,2.3275,2.3285,2.3293,2.3301,2.3307,2.3315,2.3323,2.3334,2.3338,2.3348,2.3357,2.337,2.3375,2.3382,2.3382,2.3384,2.3384,2.3385,2.3385,2.3375,2.3384,2.3384,2.3384,2.3384,2.3384,0,2.3263,2.3271,2.328,2.3293,2.3301,2.3304,2.3314,2.332,2.3329,2.3337,2.3345,2.3356,2.3365,2.3373,2.3382,2.3386,2.3388,2.3389,2.3388,2.3389,2.3384,2.3382,2.3387,2.3387,2.3387,2.3387,2.3387,2.3387,2.3268,2.3279,2.3284,2.3299,2.3306,2.3317,2.3322,2.3329,2.3336,2.3349,2.3357,2.3362,2.337,2.338,2.3388,2.339,2.3393,2.3393,2.3395,2.339,2.339,2.3389,2.3388,2.3394,2.3394,2.34,2.34,2.34]}]]